Location: Pompeys Pillar
(45.9913°N, 107.9528°W)
Time: 04:21:27
(UTC+00:00)

Tiros 1 - Pass Details

Date: 30 May 2022
Orbit: 629 x 663 km, 48.4° (Epoch: 30 June)

Event Time Altitude Azimuth Distance (km) Brightness Sun altitude
Rises 10:43:02 0° 287° (WNW) 2,926 10.2 -6.7°
Reaches altitude 10° 10:45:21 10° 288° (WNW) 2,021 9.4 -6.4°
Maximum altitude 10:50:00 89° 208° (SSW) 644 7.2 -5.8°
Drops below altitude 10° 10:54:43 10° 110° (ESE) 2,036 10.2 -5.2°
Sets 10:57:03 0° 110° (ESE) 2,950 11.0 -4.9°
